GFSNW_con_lsi_123.txt.gz
Lid_Strength_Index
1 0 -0 -1 0 2 4 8 13 7 4 10 12 12 11 7 8 8 9 10 9 11 11 12 12 12 11 9 11 13 13 15 17 16 13 12 13 15 15 18 18 16 16 16
0 0 -0 -1 -1 1 5 10 10 7 6 14 14 13 11 9 8 9 10 10 9 9 11 12 11 11 9 10 11 12 13 15 18 18 15 14 15 13 14 15 16 17 19 17
-0 -0 -0 -1 -1 -0 4 9 14 10 9 10 14 14 12 12 8 8 9 9 9 10 11 11 12 12 10 10 9 7 10 14 16 18 16 15 16 15 14 16 19 18 17 15
-1 -1 -1 -1 -1 -1 2 8 13 10 14 12 12 13 13 12 12 8 9 10 10 10 12 12 12 11 11 10 7 11 13 16 14 14 14 14 15 15 14 16 16 18 16 15
-1 -1 -1 -1 -1 -0 3 8 10 9 11 12 12 12 13 12 10 9 10 10 9 10 12 11 12 11 12 13 11 12 13 16 15 16 13 14 15 14 14 15 15 16 15 15
-1 -1 -1 -1 -1 -0 4 4 4 8 11 13 14 14 14 12 9 8 7 8 9 10 9 9 9 9 10 10 12 13 14 15 16 18 14 15 17 15 14 14 14 14 16 13
-1 -1 -1 -1 -1 -0 2 3 4 8 13 12 13 13 13 13 11 9 8 7 9 8 7 8 9 10 10 10 10 10 14 14 15 18 16 19 14 13 12 13 12 12 12 11
-1 -1 -1 -1 -1 -1 1 2 5 7 11 11 11 12 12 12 11 9 8 8 6 7 9 12 13 13 13 12 12 12 12 14 17 18 18 14 13 12 13 14 13 11 12 11
-1 -1 -1 -1 -1 -1 1 2 3 5 10 10 9 11 12 12 12 10 9 8 6 8 10 12 16 17 14 15 15 12 12 14 15 17 19 18 13 11 11 12 16 11 11 11
-1 -1 -1 -1 -1 -1 0 2 2 5 10 9 9 10 11 11 11 11 10 9 9 8 12 13 15 15 12 16 16 16 16 16 17 18 18 14 11 11 11 17 15 11 10 11
-1 -1 -1 -1 -1 -1 0 2 1 4 7 8 7 6 8 10 10 12 10 10 10 11 12 13 13 14 13 14 14 15 16 17 18 17 18 18 11 11 13 12 12 11 11 11
-1 -1 -1 -1 -1 -1 -0 3 1 1 6 6 5 5 4 6 9 9 10 9 11 10 11 12 12 13 13 13 16 13 15 13 15 14 14 10 10 11 10 10 11 11 11 10
-1 -1 -1 -1 -1 -1 -0 3 1 3 5 6 7 7 4 4 7 7 11 11 8 9 8 9 10 13 12 15 14 13 12 11 12 12 11 10 10 10 9 9 10 10 9 9
-1 -1 -1 -1 -1 -1 -0 2 1 2 5 9 8 4 5 3 6 7 8 10 9 8 8 9 11 12 10 13 12 12 11 10 12 12 11 10 9 9 9 9 9 9 9 9
-1 -1 -1 -1 -1 -1 -0 1 1 1 5 9 8 6 5 4 4 6 7 9 9 9 10 11 12 11 12 13 12 14 12 12 12 12 10 9 9 7 8 8 9 9 9 9
-1 -1 -1 -1 -0 -0 2 5 1 0 1 7 10 7 6 5 4 5 7 8 9 9 11 12 12 11 12 15 16 12 11 10 10 10 9 8 8 7 7 8 8 8 9 8
-1 -1 -0 -0 -0 1 4 5 2 0 1 6 10 10 8 6 6 6 8 9 9 10 12 13 12 12 11 15 15 12 10 9 10 9 9 11 9 9 8 8 8 7 8 8
-1 -0 -0 -0 -0 0 3 2 1 0 4 5 11 11 11 7 11 11 9 10 10 10 12 13 14 13 14 16 13 11 10 10 10 9 9 10 10 10 9 9 9 9 9 9
-0 -0 -0 1 2 5 4 -0 1 2 4 10 11 12 13 7 10 10 10 9 13 10 13 14 14 14 16 15 13 12 12 11 9 10 10 10 10 10 11 10 10 10 10 10
-0 2 5 6 4 -0 1 4 8 8 8 9 10 8 12 9 10 12 12 10 13 15 14 13 15 14 12 13 12 11 11 10 11 12 12 12 12 11 11 11 10 10 10 10
3 5 7 4 0 3 6 10 10 11 12 11 9 9 11 8 11 12 10 12 12 15 14 15 18 15 12 12 12 12 12 11 10 10 9 10 10 10 11 12 11 10 10 11
3 3 3 5 6 8 10 11 10 11 12 10 9 9 9 8 7 11 11 12 12 16 13 16 18 13 12 11 11 11 11 10 10 10 10 10 10 10 10 12 11 11 11 10
2 5 7 10 9 12 13 14 12 12 9 9 8 10 8 8 7 10 12 13 14 11 16 17 16 13 11 10 10 10 10 9 9 9 9 11 11 10 11 11 11 11 11 10
7 9 12 11 13 14 14 12 10 8 8 8 8 9 9 9 10 11 13 12 12 15 18 18 15 13 12 11 9 10 10 10 10 10 10 10 10 11 11 11 11 11 11 11
8 9 13 12 9 10 8 9 9 8 6 7 8 9 8 11 12 12 12 13 15 15 16 15 13 11 10 10 12 12 12 12 12 12 12 12 12 12 12 11 11 11 11 11
7 8 10 9 9 13 8 8 8 7 7 6 7 10 11 12 11 13 13 16 16 14 13 11 11 11 11 11 11 11 12 12 12 12 12 12 12 12 12 11 11 11 10 10
8 10 8 9 9 10 9 8 7 6 8 10 10 12 13 10 13 13 13 15 13 11 11 11 10 10 11 11 11 12 11 12 12 12 12 12 12 12 12 12 12 11 10 10

GFSNW_con_lsi_126.txt.gz
Lid_Strength_Index
0 0 1 0 -0 -0 1 4 11 6 7 13 14 15 12 8 9 7 9 10 11 12 12 13 13 13 12 10 11 13 14 16 17 16 14 13 14 15 16 19 18 18 19 17
-0 0 0 -0 -1 -0 2 6 7 6 8 15 17 15 12 10 9 9 9 10 10 11 13 14 12 12 10 10 11 13 13 16 19 17 15 14 16 14 15 16 17 18 20 18
-1 -0 -1 -1 -1 -1 1 6 10 9 9 10 15 16 15 13 10 9 8 9 10 11 13 12 13 13 11 10 10 7 10 15 17 18 17 15 17 15 16 17 20 19 18 17
-1 -1 -1 -1 -1 -1 1 5 9 8 13 13 12 13 15 15 13 10 9 10 10 11 13 14 13 12 12 11 7 11 13 16 15 14 14 14 15 15 16 17 17 18 17 16
-2 -1 -1 -1 -1 -1 3 7 8 7 8 10 12 12 13 15 14 11 10 10 10 11 13 12 12 12 13 13 12 13 13 16 16 16 14 15 16 15 15 15 16 17 17 16
-1 -1 -1 -1 -1 -1 4 3 3 6 8 9 11 13 12 13 13 11 9 8 9 11 10 9 9 10 10 11 12 14 14 15 16 18 15 15 16 15 15 15 15 15 17 15
-1 -1 -1 -1 -1 -1 2 3 4 8 11 10 11 12 11 12 12 13 9 8 8 8 8 9 9 11 11 11 12 12 15 15 16 18 16 19 14 13 12 14 14 14 14 13
-1 -1 -1 -1 -1 -1 1 2 4 7 11 9 9 10 11 11 11 11 10 8 6 7 9 11 13 14 14 13 13 13 13 14 17 18 18 15 14 12 13 13 14 12 12 12
-1 -1 -1 -1 -1 -1 1 1 1 4 9 10 7 9 10 13 13 13 12 10 6 7 10 12 16 17 15 16 15 13 13 13 15 17 18 18 14 12 10 12 16 12 11 11
-1 -1 -1 -1 -1 -1 0 2 0 4 8 8 7 9 9 9 12 13 12 11 10 8 11 14 16 16 13 17 17 16 16 16 17 17 19 15 12 11 11 16 15 12 11 11
-1 -1 -1 -1 -1 -1 0 2 0 3 6 6 5 5 7 8 9 13 12 11 11 11 11 12 14 15 14 15 15 16 16 17 18 17 18 17 10 12 13 12 12 11 11 11
-1 -1 -1 -1 -1 -1 -1 3 0 0 5 6 3 3 3 4 5 10 11 10 12 10 12 13 13 14 14 15 17 14 15 14 15 14 14 11 10 11 10 10 10 11 11 11
-1 -1 -1 -1 -1 -1 -0 2 2 2 5 5 6 7 4 3 4 7 11 9 9 10 9 10 11 13 13 15 15 14 13 12 14 13 12 11 10 11 10 9 10 9 9 10
-1 -1 -1 -1 -1 -1 -0 2 2 2 5 9 7 3 5 2 3 7 8 9 9 9 9 11 12 13 12 14 12 13 12 11 13 14 12 11 9 10 9 9 9 9 9 9
-1 -1 -1 -1 -1 -1 -0 2 1 1 5 9 8 4 3 3 3 6 6 7 9 10 11 11 13 12 12 13 13 14 12 13 12 13 9 10 9 9 9 9 8 8 9 9
-1 -1 -1 -1 -1 -1 2 5 1 0 1 7 10 5 6 4 3 4 5 7 9 10 13 13 12 11 11 14 15 11 10 10 8 10 9 8 9 8 8 8 8 8 8 8
-1 -1 -1 -0 -0 1 4 5 3 0 1 7 10 9 7 6 4 5 6 8 9 10 11 13 13 13 12 15 15 12 10 9 9 9 9 10 9 9 8 8 8 6 7 8
-1 -0 -0 -0 -0 0 3 1 0 0 4 5 10 10 9 6 9 9 6 8 9 10 12 13 14 13 14 15 12 11 10 10 10 10 9 9 9 9 9 8 9 9 8 8
-0 -0 -0 1 2 4 4 -0 0 1 4 10 9 12 13 7 9 9 9 8 11 9 12 14 13 15 16 15 13 11 11 11 10 9 10 11 10 9 9 10 10 9 8 9
-0 2 4 6 4 0 0 3 6 8 9 8 10 7 11 8 10 11 11 10 12 14 13 12 13 13 11 13 12 11 10 10 10 10 13 12 12 11 11 10 9 8 8 10
2 5 6 4 1 4 7 10 10 10 12 10 8 8 10 6 10 11 9 12 12 15 14 14 17 14 12 10 13 12 12 11 9 9 8 9 9 9 10 11 10 10 10 11
2 3 3 4 8 9 10 11 10 11 12 10 9 8 7 7 7 10 10 12 13 16 14 17 19 14 11 10 10 11 12 10 11 11 10 11 11 10 10 11 12 11 10 10
2 4 7 9 9 12 15 14 13 12 9 9 8 10 8 8 8 11 12 13 13 12 18 18 17 14 11 10 9 10 10 10 11 11 11 10 12 12 12 12 12 11 11 11
7 9 12 12 12 12 16 13 11 9 8 8 8 9 9 8 10 11 13 12 12 15 17 18 16 14 12 10 9 9 10 9 10 10 11 12 12 12 12 11 11 12 12 11
8 8 14 13 10 8 9 9 9 9 6 7 8 8 8 10 11 11 12 13 15 15 17 16 14 12 11 11 10 10 10 10 11 11 11 12 12 12 12 12 12 11 11 12
7 8 10 10 10 9 8 8 9 6 6 6 7 10 11 12 11 13 15 14 16 15 14 12 11 11 11 12 12 11 12 12 12 12 12 11 12 11 12 13 12 12 11 12
9 9 8 9 9 9 9 8 8 6 7 10 10 12 13 11 13 13 13 14 12 11 10 10 10 10 11 11 12 12 13 13 13 13 13 13 13 13 12 13 13 12 12 11

GFSNW_con_lsi_132.txt.gz
Lid_Strength_Index
-1 -1 -0 -0 -0 -0 2 7 12 4 3 9 9 13 13 11 11 10 10 10 10 12 12 14 14 14 13 11 12 14 15 16 19 17 15 13 14 15 16 20 20 19 20 19
-1 -1 -1 -1 -1 -1 4 7 9 4 3 12 11 10 10 11 13 12 11 11 10 10 12 14 14 13 11 11 12 14 14 17 19 18 16 15 16 16 16 18 18 20 20 19
-2 -2 -2 -2 -2 -2 2 6 10 8 5 6 9 10 11 12 11 12 12 12 10 11 12 13 14 14 12 11 11 8 11 17 17 18 17 16 17 16 16 17 21 20 19 18
-2 -2 -2 -2 -2 -2 1 5 9 9 11 9 9 9 10 11 13 11 12 13 13 12 13 13 14 14 14 11 7 12 13 16 17 16 15 15 16 16 17 18 18 19 18 17
-2 -2 -2 -2 -2 -1 3 7 8 7 9 7 9 9 10 11 11 11 14 14 13 12 13 11 13 13 14 13 12 13 14 16 16 17 15 15 15 15 16 16 17 17 18 17
-2 -2 -2 -2 -1 -1 3 3 3 6 8 9 10 10 10 10 8 9 11 12 14 14 13 10 10 10 11 12 13 14 15 16 17 19 16 16 18 16 15 16 16 15 18 15
-2 -2 -2 -2 -1 -1 2 2 4 8 11 9 10 9 8 9 9 10 10 11 12 11 10 9 10 11 12 12 14 13 16 16 17 19 18 20 15 14 14 14 14 14 15 14
-2 -2 -2 -2 -2 -1 1 1 4 7 11 8 8 9 9 8 7 9 8 8 9 8 11 11 13 14 14 14 15 15 15 15 18 19 19 17 15 14 14 15 14 12 13 14
-2 -2 -2 -1 -1 -1 0 1 1 4 9 10 7 9 8 10 10 9 8 6 6 8 12 13 14 16 15 17 16 15 14 15 16 19 19 19 14 13 12 12 15 12 11 13
-1 -1 -1 -1 -1 -1 0 2 0 4 8 6 6 9 9 7 8 10 8 8 8 7 13 14 15 14 13 17 17 18 18 17 18 18 19 17 13 12 12 16 14 12 11 12
-1 -1 -1 -1 -1 -1 0 2 0 3 8 6 5 5 7 7 8 10 8 9 9 10 13 13 14 16 14 15 15 16 17 18 18 18 19 18 12 12 13 11 13 11 12 11
-1 -1 -1 -1 -1 -1 -1 3 0 0 5 6 3 3 3 4 5 7 7 8 8 10 11 11 12 16 16 15 18 16 16 15 17 15 16 11 10 11 11 11 11 11 11 10
-1 -1 -1 -1 -1 -1 -0 2 1 2 5 5 5 6 3 2 2 2 8 7 6 8 7 9 11 14 15 16 16 15 15 15 15 14 13 12 11 11 11 11 11 11 10 10
-1 -1 -1 -1 -1 -1 -1 2 1 2 5 9 7 3 4 2 2 3 3 5 4 6 7 10 11 13 13 14 13 14 13 13 15 16 14 12 11 10 9 10 10 10 10 9
-1 -1 -1 -1 -1 -1 -0 1 1 1 5 9 8 4 3 2 2 3 3 4 5 7 9 10 12 12 13 15 14 15 14 14 13 15 12 11 10 8 9 10 10 9 9 10
-1 -1 -1 -1 -1 -1 1 5 2 0 1 6 10 5 6 4 3 4 5 5 5 6 8 9 10 11 11 15 16 13 13 12 10 11 10 9 10 10 9 8 9 9 9 9
-1 -1 -1 -1 -1 1 4 6 3 0 1 6 10 9 6 5 4 5 5 4 6 6 8 9 11 11 10 14 14 12 12 11 10 11 9 10 10 9 9 9 8 7 9 9
-1 -1 -1 -1 -1 0 3 2 -0 0 4 5 10 10 8 5 8 8 5 7 7 7 8 10 10 11 12 16 12 11 12 11 11 10 10 10 9 9 9 10 9 9 9 9
-1 -1 -0 1 3 5 4 -0 -0 0 4 9 9 11 13 6 7 7 7 7 10 7 10 10 10 11 14 14 13 12 12 12 11 10 10 11 10 9 9 10 10 9 9 9
-1 1 4 7 4 -0 0 3 5 6 7 7 9 7 10 7 8 9 9 9 10 13 10 9 11 12 10 12 12 12 11 10 11 12 13 12 12 10 10 9 9 8 8 9
2 5 6 4 0 3 5 8 9 8 11 9 8 8 9 6 10 10 8 11 11 14 12 12 13 13 11 10 12 12 12 11 11 11 10 9 9 9 10 10 9 9 9 9
2 3 1 2 5 7 10 11 10 12 13 10 9 8 8 7 6 9 9 11 11 15 10 13 15 13 10 9 9 9 9 9 10 11 11 10 10 9 9 9 9 9 8 9
2 4 6 8 8 12 13 15 12 12 9 8 8 9 8 7 7 9 10 13 13 10 13 14 14 13 11 10 8 9 8 8 8 8 9 11 11 10 10 10 9 9 9 9
6 8 11 11 12 15 14 12 10 8 8 8 8 9 9 8 10 10 13 11 12 14 16 16 13 13 11 9 8 9 9 9 9 8 8 9 12 12 11 10 10 11 10 10
8 8 12 11 11 11 9 9 8 8 6 7 8 9 8 10 11 10 11 13 15 14 16 14 11 11 12 12 12 12 11 10 11 10 10 10 11 11 12 12 11 11 11 11
7 8 10 10 10 12 8 8 8 6 6 6 7 10 11 12 11 13 13 14 16 15 14 12 10 11 11 11 12 12 12 11 11 10 10 11 12 11 11 12 13 12 12 12
8 9 7 8 9 10 8 7 7 5 7 10 10 12 13 10 13 13 13 14 13 11 11 11 10 11 11 11 12 12 12 12 13 13 12 12 12 13 13 14 14 13 13 13

GFSNW_con_lsi_135.txt.gz
Lid_Strength_Index
-1 -1 -1 -0 -1 -1 2 7 11 5 1 9 9 11 9 7 9 9 11 10 11 12 12 13 13 13 12 11 12 13 13 15 17 15 14 12 12 13 14 16 18 17 17 16
-1 -1 -2 -2 -2 -1 4 7 8 4 4 14 11 9 9 8 9 9 12 11 10 11 12 13 12 12 10 11 12 13 13 15 18 16 14 13 14 14 15 16 15 17 17 16
-2 -2 -2 -2 -2 -2 2 6 11 8 5 7 11 11 11 10 7 8 8 12 11 11 13 13 13 12 10 11 11 8 10 15 15 16 15 15 16 15 15 14 17 18 16 15
-2 -2 -1 -2 -2 -2 2 5 8 7 12 9 9 9 10 11 11 8 7 9 11 13 13 14 14 12 12 10 8 11 12 15 16 15 14 14 15 15 15 15 15 16 16 15
-1 -1 -1 -1 -2 -2 3 7 8 6 8 8 9 9 10 11 10 9 10 10 10 12 14 13 14 12 13 12 10 13 13 15 15 15 14 14 14 15 15 14 16 15 16 15
-1 -1 -1 -1 -2 -1 4 3 3 6 7 9 10 10 9 10 9 8 8 8 9 13 12 11 12 12 10 11 11 13 14 15 16 16 15 15 16 14 15 15 15 13 16 12
-1 -1 -1 -1 -2 -1 2 2 3 7 10 9 9 8 8 9 8 10 8 7 9 8 8 9 10 11 11 11 12 12 15 15 15 17 16 18 14 12 12 12 13 13 13 13
-1 -1 -1 -1 -1 -2 1 1 4 6 10 9 9 9 9 9 8 9 9 7 5 5 8 12 14 13 13 13 13 13 14 15 17 17 18 15 14 14 13 13 13 12 12 12
-1 -1 -1 -1 -2 -1 1 1 1 4 8 9 7 8 8 10 10 10 8 5 4 5 9 13 16 17 14 15 15 13 14 14 14 18 17 18 14 12 11 11 14 11 11 11
-1 -1 -1 -1 -1 -1 0 1 1 3 8 6 6 9 9 7 8 10 8 7 8 6 11 14 15 15 12 16 16 16 16 16 16 17 17 15 13 11 11 14 12 11 11 11
-1 -1 -1 -1 -1 -1 0 2 0 3 7 6 5 5 7 7 7 10 8 9 9 10 13 13 13 14 13 13 14 15 15 16 17 17 18 17 12 12 12 10 10 11 11 10
-1 -1 -1 -1 -1 -1 -1 3 0 0 4 5 3 3 2 3 4 6 7 9 8 8 11 11 11 13 14 12 15 14 15 13 15 14 15 11 11 10 9 10 10 10 10 9
-1 -1 -1 -1 -1 -1 -0 2 1 2 5 5 5 6 3 1 2 2 8 7 7 7 6 8 10 12 13 14 13 14 13 13 13 13 12 12 11 10 10 9 9 9 9 9
-1 -1 -1 -1 -1 -1 -1 2 1 2 5 9 8 2 4 2 1 2 3 5 4 5 6 9 10 12 10 13 12 12 13 13 14 14 13 12 11 10 9 9 9 9 9 8
-1 -1 -1 -1 -1 -1 -0 1 1 1 5 9 8 5 3 3 3 3 3 4 5 6 8 10 11 9 11 13 13 15 13 14 13 12 11 10 10 8 8 9 9 9 9 9
-1 -1 -1 -1 -1 -1 1 5 2 0 1 6 10 5 5 4 3 4 4 5 5 6 8 9 8 8 9 13 15 12 12 12 9 11 9 9 10 9 8 8 9 9 9 8
-1 -1 -1 -1 -1 1 4 5 3 -0 1 6 10 9 6 5 4 5 5 4 6 6 8 9 9 9 9 13 16 11 12 11 10 10 9 10 10 9 9 8 8 7 9 8
-1 -1 -1 -1 -1 0 3 1 -0 -0 3 5 10 11 9 5 8 8 5 7 6 7 8 8 9 10 10 13 12 10 9 11 11 10 10 9 8 9 10 9 9 9 9 9
-1 -0 -0 1 2 4 3 -0 -0 1 4 9 9 11 12 5 7 7 7 7 10 7 10 9 8 10 13 12 12 11 10 10 10 10 10 10 9 9 10 9 9 9 9 9
-0 1 4 6 4 -0 0 3 5 5 6 6 10 7 11 7 8 9 9 8 11 12 10 8 11 11 8 9 9 9 9 9 9 11 13 12 11 10 10 9 8 8 8 8
2 5 6 3 0 3 5 8 9 8 10 9 8 8 10 6 10 10 8 10 10 14 11 12 13 13 9 7 9 11 10 9 9 8 9 9 9 9 9 9 9 9 9 9
2 3 3 2 5 7 9 10 10 10 14 13 9 8 7 7 7 9 9 11 11 15 9 12 15 11 8 7 8 8 10 10 10 10 10 10 10 9 9 9 9 9 8 9
2 4 6 8 8 12 13 20 13 15 10 8 8 9 8 7 7 9 10 13 13 9 13 14 12 10 9 7 7 7 7 8 9 9 10 10 10 10 10 9 9 9 9 9
6 9 14 11 14 16 16 15 12 8 8 8 8 9 9 8 9 9 13 11 11 14 15 15 12 11 10 9 7 7 8 7 8 8 9 11 11 11 11 10 9 9 9 9
8 8 12 14 11 11 9 8 10 8 6 7 8 8 8 10 11 10 11 13 15 14 14 12 11 10 10 10 10 10 9 8 8 8 9 10 11 11 11 11 10 10 9 9
8 8 10 9 10 10 10 9 9 6 7 7 7 10 11 12 11 13 14 14 15 13 11 10 10 10 10 10 11 11 11 11 11 10 10 9 9 10 10 10 11 11 10 10
9 10 8 8 9 10 10 7 7 5 7 10 10 12 13 10 13 13 11 13 12 10 10 10 10 11 10 10 11 11 11 12 12 12 11 10 10 10 12 13 13 11 11 11

GFSNW_con_lsi_138.txt.gz
Lid_Strength_Index
1 1 0 0 0 0 1 4 10 2 -0 7 7 10 8 6 7 6 8 8 9 9 9 11 11 11 9 8 8 11 8 10 13 13 11 10 9 11 11 14 14 13 13 13
0 0 -0 -1 -1 -1 1 6 6 2 2 10 10 7 8 7 7 7 8 9 7 9 10 12 10 9 9 8 9 9 10 11 14 14 12 11 12 11 10 11 12 13 14 12
-0 -1 -1 -1 -2 -2 1 5 9 6 4 5 8 9 9 10 7 7 7 8 7 9 11 10 10 11 11 9 8 5 7 10 11 13 12 10 13 12 11 11 13 13 13 12
-0 -1 -1 -1 -2 -2 1 5 7 6 10 8 7 7 8 10 10 7 7 9 8 10 12 12 11 11 11 10 8 8 9 12 11 11 11 11 11 12 12 12 11 13 11 12
-1 -1 -1 -1 -1 -1 3 7 7 5 7 6 7 7 9 9 8 8 9 11 10 8 11 10 11 13 12 11 9 10 9 11 11 12 12 12 12 12 11 11 11 11 11 12
-2 -1 -2 -2 -2 -1 4 3 2 5 7 7 9 9 8 8 7 6 6 9 9 9 8 6 7 9 10 10 12 11 10 11 13 13 12 12 14 12 12 11 10 10 12 10
-2 -2 -1 -1 -1 -0 2 2 3 7 10 8 8 8 7 7 7 8 6 6 9 7 5 5 5 7 9 10 11 10 11 11 11 13 13 16 11 9 9 10 10 9 9 9
-1 -1 -1 -1 -1 -1 1 1 3 6 9 7 7 7 7 6 6 7 7 6 4 4 7 11 12 12 12 12 11 10 10 10 12 14 15 12 12 12 11 11 10 8 9 9
-1 0 -1 -1 -1 -1 0 1 0 4 8 8 6 7 6 8 9 8 7 5 4 5 9 12 15 15 13 15 13 12 11 11 11 13 14 16 10 9 8 8 11 6 7 8
-1 -1 -1 -1 -1 -2 -0 1 -0 3 8 5 5 7 8 6 7 9 7 7 6 5 11 14 14 14 10 14 15 14 14 13 13 12 13 12 9 9 8 12 10 6 7 7
-1 -1 -1 -1 -1 -1 -0 1 -1 3 6 5 4 4 6 6 6 10 7 8 8 9 12 13 12 12 12 11 10 11 13 13 13 12 13 14 10 10 10 7 7 7 7 7
-1 -1 -1 -1 -1 -1 -1 2 -0 -0 4 5 2 2 2 3 3 6 6 8 9 8 11 11 11 12 10 11 14 10 13 10 11 10 11 8 9 7 7 7 7 7 7 7
-1 -1 -1 -1 -1 -1 -1 1 1 2 5 5 5 5 2 1 1 1 8 6 5 7 5 9 10 12 8 12 11 10 10 9 10 10 8 9 9 8 8 7 7 7 7 7
-1 -1 -1 -1 -1 -1 -1 1 1 2 7 9 7 1 3 1 1 2 2 4 4 4 5 8 10 12 7 9 8 9 8 9 9 10 9 9 9 8 7 7 7 7 7 6
-1 -1 -1 -1 -1 -1 -1 0 0 0 5 9 8 3 2 1 2 3 3 4 5 6 8 9 11 8 8 8 8 9 8 9 9 10 7 7 6 7 7 7 7 7 7 7
-1 -1 -1 -1 -1 -1 1 5 1 -0 1 6 10 3 4 3 3 3 4 4 5 6 8 9 7 5 8 11 11 7 7 7 6 7 6 6 6 7 7 6 6 6 6 6
-1 -1 -1 -1 -1 -0 4 5 2 -0 0 6 9 8 4 3 4 4 5 4 5 6 7 9 8 7 7 10 12 7 7 7 7 6 6 7 8 6 7 6 5 5 6 5
-1 -1 -1 -1 -1 0 3 1 -0 -0 3 5 10 9 7 4 7 8 5 7 6 7 8 7 9 8 8 12 8 7 7 7 7 7 7 7 6 6 7 6 5 6 6 6
-1 -1 -1 0 2 4 3 -1 -1 -0 3 9 9 10 11 5 6 6 7 6 10 6 10 9 8 10 12 9 8 6 6 6 6 6 6 7 8 7 7 7 7 6 6 6
-0 0 3 6 3 -0 0 2 5 5 6 6 9 7 9 6 7 8 8 8 10 12 10 7 11 11 7 6 5 5 5 5 5 6 7 8 8 8 7 7 7 6 5 6
2 4 6 2 0 2 5 8 9 8 10 7 7 7 8 5 9 9 7 10 10 14 10 11 12 12 7 5 5 5 5 5 5 5 5 5 7 7 7 7 7 6 5 6
2 2 3 2 5 7 9 10 9 9 10 7 8 8 6 6 5 8 8 11 10 14 9 12 13 8 6 5 5 6 5 6 6 5 6 6 6 7 6 6 6 6 6 5
1 4 6 7 8 11 12 13 12 11 8 7 7 9 7 6 6 8 9 12 12 8 13 12 9 7 6 5 5 5 4 6 6 6 5 6 7 7 6 6 6 5 6 6
5 8 11 10 11 10 9 9 8 7 6 7 7 8 9 7 9 9 12 10 10 13 15 12 8 7 7 6 6 5 5 5 6 6 6 6 7 7 7 6 6 6 6 6
7 8 11 10 7 7 7 6 7 6 5 6 7 8 8 10 11 10 10 13 14 13 11 9 7 7 7 7 6 6 5 4 4 4 6 7 7 7 8 7 6 6 6 6
7 8 9 7 8 8 7 7 7 5 6 6 7 10 11 12 11 12 13 13 13 11 8 7 7 7 6 7 7 7 6 6 5 5 5 6 7 7 7 7 7 7 6 6
8 9 7 7 7 8 7 7 6 4 7 10 9 12 12 10 12 13 10 12 9 7 7 6 6 8 7 7 8 8 8 8 8 6 6 6 6 6 7 8 8 7 7 6

GFSNW_con_lsi_141.txt.gz
Lid_Strength_Index
1 1 1 1 0 -0 1 5 10 3 1 7 8 10 9 7 9 6 7 8 8 9 8 9 9 9 8 6 7 9 8 9 12 12 9 8 9 10 10 13 13 12 13 12
1 1 1 0 -0 -0 2 6 6 2 2 10 10 8 8 7 7 7 7 8 7 7 10 11 9 8 6 6 7 9 8 10 13 12 11 10 11 10 9 10 10 13 14 12
1 1 0 0 -0 -1 1 6 10 6 5 5 8 8 9 9 6 7 6 7 6 8 10 9 11 9 7 7 7 5 6 9 11 13 12 10 13 11 10 10 12 13 12 11
1 1 0 0 -0 -0 1 5 8 6 10 8 7 7 8 9 9 6 6 7 7 8 10 10 11 9 8 7 7 8 8 12 10 9 9 9 10 11 11 11 10 12 11 10
1 0 0 -0 -1 -2 2 7 8 6 7 6 7 7 8 8 8 7 8 8 7 7 11 10 11 10 10 11 9 10 9 12 10 11 10 10 11 10 10 10 10 10 10 10
0 -1 -1 -2 -2 -1 3 3 4 6 7 7 8 8 8 8 6 6 6 6 7 8 7 7 6 7 7 8 10 11 12 11 12 13 10 11 14 11 11 10 10 10 11 9
-1 -1 -2 -2 -1 -1 1 3 3 7 10 8 8 7 7 7 7 7 6 5 7 5 3 5 6 6 8 8 9 9 12 12 11 13 11 16 11 8 9 9 9 8 8 8
-1 -2 -1 -2 -1 -1 1 2 4 6 10 8 7 7 7 6 6 6 6 5 4 3 5 10 12 11 11 11 9 10 10 12 14 14 14 11 11 10 9 10 10 7 8 7
-1 -1 -1 -1 -1 -1 1 3 2 5 8 9 6 7 6 7 7 7 6 4 3 4 8 12 15 16 13 13 11 8 10 11 13 14 15 17 11 8 7 7 12 6 6 7
-1 -1 -1 -1 -0 0 2 3 1 4 7 6 5 7 7 5 6 7 6 5 6 4 10 13 14 14 11 14 13 13 13 14 15 15 15 11 8 8 7 13 11 6 5 6
-2 -1 -2 -1 -1 -1 0 1 -0 3 5 4 4 4 5 5 5 9 6 7 7 9 12 12 12 12 10 11 10 11 14 15 15 14 15 15 8 9 11 7 6 6 5 5
-1 -1 -1 -1 -1 -1 -1 2 -0 -0 4 4 2 2 1 2 3 5 5 7 8 8 10 11 9 11 10 11 13 8 14 11 12 11 11 7 7 7 7 6 5 6 5 4
-1 -1 -1 -1 -1 -1 -1 1 0 1 5 5 5 5 2 0 1 1 7 6 5 7 5 8 10 13 9 13 12 9 8 7 10 10 7 7 7 7 7 7 6 6 5 5
-1 -1 -1 -1 -1 -1 -1 1 0 1 4 9 6 1 3 1 1 1 2 3 3 4 5 9 10 11 8 11 8 9 7 7 8 8 7 6 6 7 6 7 6 7 6 5
-1 -1 -1 -1 -1 -1 -1 -0 -0 -0 4 9 7 3 2 1 2 2 2 3 4 6 8 9 11 8 9 9 9 10 7 8 9 10 7 7 6 5 7 7 7 6 6 6
-1 -1 -1 -1 -1 -1 1 4 0 -0 1 6 10 4 4 3 2 3 3 4 4 6 8 9 7 5 8 11 12 7 6 5 5 6 5 5 5 6 6 7 6 6 5 5
-1 -1 -1 -1 -1 -0 3 4 2 -0 0 6 9 8 4 3 3 4 4 4 5 6 7 9 8 7 7 10 12 7 5 5 5 5 5 6 6 7 6 6 5 5 5 5
-1 -1 -1 -1 -1 -0 2 0 -1 -0 3 5 10 9 7 3 7 8 4 6 6 7 8 7 9 7 8 12 8 6 6 5 5 5 5 5 5 6 6 6 5 6 6 5
-1 -1 -1 -0 1 3 2 -1 -1 0 4 9 9 10 10 4 6 6 6 6 10 6 9 9 8 10 12 9 7 6 6 6 5 5 5 6 6 6 7 6 6 6 5 5
-1 0 3 6 3 -0 -0 3 5 5 5 6 9 6 9 6 7 8 8 8 10 12 10 7 11 11 6 5 5 5 5 5 5 6 6 6 6 6 7 7 6 5 5 4
1 4 5 2 -0 2 5 8 9 8 9 7 7 6 8 4 8 8 7 9 10 14 11 11 12 11 7 5 5 4 4 5 5 5 5 4 5 5 6 6 6 6 5 5
2 2 2 3 5 7 9 10 9 9 10 7 8 7 6 5 4 8 8 10 10 14 9 12 12 8 5 5 5 4 4 4 4 5 6 5 5 5 5 6 6 6 5 5
1 4 6 7 8 11 11 13 11 10 7 7 7 9 6 6 6 8 9 12 12 7 12 12 9 7 6 5 4 4 3 3 4 4 5 5 5 5 5 6 5 5 6 5
6 8 10 10 11 10 9 8 8 6 6 6 7 8 9 6 9 8 12 9 9 13 14 11 8 6 6 5 4 5 4 4 4 4 4 4 5 5 5 5 5 5 6 6
7 7 11 10 7 7 6 6 6 5 5 7 7 7 7 10 10 9 10 12 14 12 11 8 6 5 5 5 5 4 4 4 4 4 4 4 5 6 5 5 5 5 5 6
6 7 9 7 8 8 7 7 7 4 5 5 6 9 11 11 11 12 12 13 13 10 7 6 5 5 5 5 4 5 4 5 5 5 5 5 5 6 6 5 5 6 5 5
8 9 6 6 7 7 6 5 6 4 7 10 9 12 12 9 12 12 9 11 8 6 6 5 5 5 5 5 5 5 6 6 5 6 5 5 5 5 6 6 6 6 5 5

GFSNW_con_lsi_144.txt.gz
Lid_Strength_Index
4 3 3 2 2 1 2 5 10 4 2 8 9 11 10 9 10 8 9 9 10 11 9 11 11 11 8 6 7 9 7 10 13 13 9 9 10 11 11 15 16 14 15 16
3 3 2 2 1 1 2 7 7 3 3 12 11 8 9 8 9 9 9 8 8 8 10 12 10 10 7 7 8 9 8 11 15 13 12 11 12 10 10 11 12 15 17 15
3 2 2 1 1 0 1 6 11 7 5 6 9 9 9 9 6 7 6 8 7 8 10 8 11 11 8 7 7 6 7 10 12 15 13 12 13 11 11 12 14 14 14 14
2 2 1 1 0 -0 2 5 10 8 11 10 9 8 9 9 10 7 6 8 8 9 10 10 10 9 9 8 7 8 9 12 11 10 10 10 11 11 11 12 12 14 12 12
2 1 1 1 0 -1 3 7 8 6 8 7 10 9 10 9 8 8 9 9 8 8 10 9 11 10 10 11 9 9 9 12 11 12 10 10 11 11 11 11 11 11 12 12
1 0 -0 0 -1 -1 3 3 3 6 8 8 10 9 9 9 7 7 6 7 8 9 8 6 6 6 7 8 10 11 11 12 13 15 11 11 13 12 11 11 10 11 13 10
0 -0 -0 -1 -1 -1 1 2 3 7 11 9 9 8 8 8 7 8 6 6 8 6 4 4 5 6 7 7 9 8 12 13 13 15 12 18 11 9 10 10 10 10 10 9
-1 -1 -1 -2 -2 -2 1 1 4 7 10 8 8 8 9 8 6 8 7 6 5 4 6 9 11 11 11 10 8 9 9 12 15 17 16 13 11 10 10 11 11 9 9 9
-1 -1 -1 -1 -1 -1 0 1 1 4 8 9 6 7 7 9 8 8 7 5 4 4 8 11 15 16 13 13 13 8 9 10 14 16 18 20 12 9 8 8 13 9 8 9
-1 -1 -1 -1 -1 -1 3 3 2 5 8 6 6 8 9 6 7 8 7 7 6 5 10 13 14 14 10 14 15 14 14 14 16 16 17 14 9 8 7 14 13 8 8 8
-2 -2 -1 -1 -1 -1 2 4 3 5 7 6 5 4 6 6 6 9 7 7 7 9 12 13 13 13 11 11 11 13 14 15 16 15 17 18 8 9 11 9 8 8 8 7
-2 -2 -1 -1 -1 -1 -1 3 1 1 4 5 2 3 3 3 4 5 5 7 7 8 10 10 10 13 11 11 14 9 14 12 13 12 13 8 7 8 7 8 8 8 8 7
-2 -2 -1 -1 -1 -1 -1 1 1 2 4 5 5 5 2 1 2 1 7 6 5 6 5 8 10 13 11 14 12 11 8 7 11 11 9 8 7 7 8 8 8 7 8 7
-2 -1 -1 -1 -1 -1 -1 1 1 2 4 8 7 2 3 1 1 2 2 3 3 4 5 8 10 12 8 11 10 11 9 8 10 10 8 7 7 7 7 8 8 8 7 7
-2 -1 -1 -1 -1 -1 -1 0 0 0 4 9 7 3 3 2 2 3 2 3 4 6 8 9 11 8 9 9 9 11 8 10 11 11 7 7 8 6 7 8 8 8 8 7
-1 -1 -1 -1 -1 -1 1 4 1 -0 1 6 10 4 4 3 3 3 4 4 5 6 8 9 8 6 9 12 13 8 6 6 6 8 6 5 6 6 7 7 7 7 7 7
-1 -1 -1 -1 -1 0 3 5 2 -0 0 6 9 9 4 3 3 4 5 4 5 6 7 8 8 8 7 11 13 8 7 7 7 5 5 7 6 8 8 7 6 6 6 6
-1 -1 -1 -1 -1 -0 2 1 -1 -0 3 5 10 10 7 4 7 8 5 7 6 7 8 7 9 8 8 12 9 7 7 7 6 6 6 6 6 8 8 8 7 7 7 7
-1 -1 -1 0 2 4 3 -1 -1 -0 3 8 9 11 12 5 7 6 6 6 10 6 9 9 8 10 12 10 8 7 7 7 7 6 6 6 7 8 8 8 8 8 8 8
-1 0 3 6 3 -1 -0 2 5 5 5 6 9 7 10 6 7 8 8 8 10 12 10 7 10 11 7 6 6 5 5 5 6 8 8 7 7 8 9 9 8 8 7 8
2 4 5 2 -0 2 4 8 9 8 10 7 7 7 8 5 9 9 8 10 10 13 11 11 12 12 8 6 6 5 5 5 5 6 6 6 6 6 7 8 8 8 8 8
2 2 1 2 5 7 9 10 9 9 11 8 8 8 7 6 5 9 8 11 10 14 9 12 14 9 6 6 5 5 5 5 5 6 6 5 5 6 6 7 7 7 7 7
1 3 6 7 8 11 13 14 12 11 8 7 7 9 7 6 6 9 10 12 13 8 12 13 10 8 6 6 6 5 5 4 4 5 5 5 5 6 6 7 7 7 7 7
6 8 11 10 11 11 10 9 9 7 7 7 7 8 9 7 9 9 12 10 10 14 14 13 9 7 7 6 5 5 6 5 5 5 5 5 5 6 6 6 7 7 7 7
7 7 12 10 8 7 7 6 7 6 5 7 7 8 8 10 10 10 10 13 15 13 12 10 7 7 6 6 6 6 6 5 5 5 5 5 6 6 6 6 6 7 7 7
6 7 9 7 8 9 8 7 7 5 6 6 7 9 11 11 11 13 13 13 14 11 9 7 7 7 6 6 6 6 6 6 6 5 5 5 5 7 7 6 7 7 7 7
8 9 6 7 8 8 7 6 6 4 7 10 9 12 12 10 12 13 11 12 10 8 7 6 6 7 6 6 6 6 6 7 7 7 6 6 5 6 7 8 8 7 7 7

GFSNW_con_lsi_147.txt.gz
Lid_Strength_Index
5 5 4 3 3 2 4 8 13 6 4 10 12 13 11 8 10 9 10 10 11 12 12 12 12 12 10 8 8 11 10 11 14 12 10 9 11 12 12 16 17 16 17 16
5 5 4 3 2 2 6 8 10 6 5 14 12 10 10 9 9 9 9 10 9 9 11 13 10 10 7 7 9 11 9 13 15 15 12 11 13 13 12 12 14 17 18 16
3 2 2 2 1 1 3 7 12 10 8 8 10 11 10 11 7 7 7 8 8 9 10 9 12 10 8 7 8 7 8 12 14 15 13 12 14 12 12 12 14 15 15 15
2 1 1 1 1 1 3 6 9 8 14 11 9 9 10 10 11 7 6 9 8 9 11 12 12 10 9 8 7 9 9 15 13 12 11 11 11 12 12 13 12 15 13 13
1 0 -0 0 1 -0 5 8 9 7 9 9 9 9 10 10 10 9 10 9 9 9 12 11 11 10 10 11 9 10 9 14 13 14 11 11 12 11 12 12 12 12 12 13
-0 -1 -1 -1 -1 0 6 4 3 6 8 9 10 11 10 9 8 9 8 8 8 10 9 8 8 8 8 9 10 11 12 13 15 17 13 12 15 11 11 11 11 12 13 11
-1 -2 -2 -2 -1 -1 3 3 3 7 10 9 10 9 8 8 8 9 7 6 8 7 6 7 7 8 8 8 8 8 11 12 13 17 15 20 12 9 9 10 11 10 10 10
-2 -2 -2 -2 -2 -1 1 1 3 6 10 8 9 8 8 8 7 8 8 7 6 6 8 11 13 13 12 10 9 9 9 12 15 17 18 14 12 9 10 11 11 9 10 9
-2 -2 -2 -2 -2 -2 0 1 1 4 8 9 7 8 8 10 9 9 8 5 5 7 8 12 19 18 15 14 13 9 9 10 13 15 19 20 12 8 7 8 13 8 9 9
-2 -2 -2 -2 -2 -2 0 2 1 4 8 6 6 8 9 7 8 10 8 8 8 6 11 16 16 15 11 15 14 14 13 13 15 15 16 15 9 9 7 14 13 8 8 8
-2 -2 -2 -2 -2 -1 -0 3 2 5 8 6 5 4 7 7 7 10 8 8 8 9 15 14 14 14 12 13 11 12 13 15 16 14 17 18 9 9 11 9 8 8 8 8
-2 -2 -2 -2 -2 -1 -1 3 1 2 7 6 3 3 2 3 4 6 7 8 9 8 13 13 11 13 12 12 15 10 14 11 14 13 13 9 8 9 8 7 8 8 8 8
-2 -2 -2 -2 -2 -2 -1 2 1 3 5 5 6 6 3 2 3 4 9 9 7 7 7 9 10 15 11 14 13 11 9 8 11 11 9 8 8 8 8 7 8 8 8 8
-2 -2 -2 -2 -2 -1 -1 2 1 2 6 9 8 3 5 3 4 4 4 6 5 5 6 9 11 12 8 11 10 10 9 9 11 11 9 8 8 8 8 8 7 8 8 8
-2 -2 -2 -2 -1 -1 -0 1 1 1 6 11 8 5 4 3 4 4 4 5 6 8 9 10 11 8 9 9 10 11 8 9 11 12 8 8 8 6 6 7 7 7 8 9
-2 -2 -2 -1 -1 -0 1 5 2 0 2 8 10 6 5 4 4 5 4 5 5 6 8 9 8 6 8 12 13 8 7 7 7 8 6 6 5 5 5 7 6 7 8 8
-2 -1 -1 -1 -1 1 4 5 2 -0 1 6 10 10 6 5 4 5 5 5 5 6 7 8 8 8 8 10 13 8 7 7 6 6 6 7 6 6 6 5 6 6 7 7
-1 -1 -1 -1 -1 -0 3 1 -1 1 4 5 10 10 8 4 7 8 5 7 6 6 8 7 9 8 8 12 9 8 7 7 7 7 6 5 5 5 6 6 5 7 8 7
-1 -1 -1 0 2 4 4 -1 -1 1 6 13 11 14 13 5 7 7 7 7 10 6 9 9 8 10 12 9 8 7 7 7 7 6 5 6 6 6 6 6 6 9 8 8
-1 1 3 6 4 -1 0 3 5 5 5 5 9 7 10 7 8 9 9 9 11 12 10 7 10 11 7 6 6 6 6 6 6 8 8 7 8 7 7 6 7 8 8 8
2 4 6 3 -0 3 5 8 9 8 10 7 7 7 9 6 10 11 8 10 10 13 12 11 12 12 8 6 6 6 5 6 6 6 7 7 7 7 7 6 7 8 8 8
2 3 1 2 5 7 9 10 9 10 12 10 9 8 7 8 7 10 10 12 10 14 9 12 14 10 7 7 7 6 5 5 6 6 6 6 6 6 7 7 6 7 8 8
2 5 7 8 9 12 12 15 13 14 9 8 8 9 8 8 7 11 12 16 15 9 13 13 11 8 6 7 7 7 6 5 6 6 5 5 6 7 7 7 7 8 8 8
7 9 13 12 15 13 10 10 12 8 8 8 8 8 9 8 10 10 14 12 13 15 15 13 10 8 7 6 6 6 7 7 7 6 6 5 6 7 7 7 7 8 8 8
7 9 14 13 9 8 7 7 7 6 6 7 8 8 9 10 11 13 14 15 16 14 13 12 9 8 8 6 7 7 7 7 7 6 7 6 6 6 7 7 7 8 7 8
6 8 14 9 10 10 8 8 9 6 6 6 7 10 10 11 11 12 14 15 14 12 11 9 8 8 7 7 7 7 7 7 8 7 6 6 7 6 6 6 6 7 7 7
9 10 8 9 9 9 8 7 8 5 8 12 10 12 14 12 16 13 12 13 10 9 9 8 6 8 7 7 7 7 7 7 8 8 8 7 6 6 6 7 7 7 7 7

GFSNW_con_lsi_150.txt.gz
Lid_Strength_Index
6 6 6 6 5 5 7 11 16 9 5 12 10 12 11 8 10 8 10 10 12 13 13 15 14 13 10 8 9 12 10 13 14 12 10 9 9 11 13 17 18 16 17 17
5 6 6 6 4 5 9 10 11 7 7 14 15 11 10 9 9 9 9 10 9 10 12 14 12 11 7 7 9 11 10 14 17 16 12 11 12 12 12 14 15 18 19 17
5 4 5 4 2 2 6 10 12 9 9 10 12 12 12 12 8 9 8 9 8 9 11 10 12 11 8 7 7 7 9 12 15 18 15 12 14 12 11 12 15 16 16 15
4 3 2 2 2 1 6 9 13 9 12 12 10 10 10 11 12 8 7 9 9 10 12 11 11 10 10 8 7 9 9 14 13 13 12 12 12 11 11 13 12 15 13 14
2 2 1 0 0 -0 6 12 11 8 10 9 10 9 10 11 9 9 10 10 9 10 12 11 11 11 10 11 10 11 10 13 13 15 12 12 13 11 11 11 11 12 12 14
1 1 -1 -1 -2 -0 6 6 6 7 9 10 10 10 10 9 8 7 7 8 9 10 10 7 7 9 9 8 10 11 11 13 14 18 13 13 16 13 11 11 11 11 14 11
0 -0 -1 -2 -2 -1 3 4 5 8 11 10 10 8 8 9 8 9 8 7 9 7 5 5 8 9 8 8 9 8 12 13 13 18 16 20 13 10 10 10 10 9 10 10
-1 -1 -2 -2 -2 -2 3 3 3 7 10 9 9 9 9 8 7 8 8 7 6 5 7 10 13 13 13 11 9 9 9 12 18 19 17 15 13 11 11 12 11 9 9 9
-2 -2 -1 -2 -2 -2 1 2 1 4 8 10 7 8 8 10 10 9 8 5 4 5 9 11 18 18 15 15 12 10 9 10 13 17 20 21 13 9 9 9 14 8 9 9
-2 -2 -2 -2 -2 -2 1 3 0 3 8 6 6 8 9 7 8 10 9 7 7 6 11 13 16 15 12 15 15 14 14 13 15 15 17 16 10 9 8 15 13 8 8 8
-2 -1 -2 -2 -1 -1 0 2 0 3 7 6 5 4 7 7 7 10 8 9 8 9 13 13 14 14 13 14 13 13 14 16 16 14 16 18 9 9 13 10 8 9 8 7
-1 -1 -1 -1 -1 -1 -1 3 0 1 7 7 3 3 2 3 4 6 6 8 8 8 11 13 12 13 13 13 16 11 14 12 14 13 13 8 8 10 9 8 8 8 7 7
-1 -1 -1 -1 -1 -2 -1 2 1 2 6 6 5 6 3 2 2 2 9 8 6 7 7 10 12 16 12 16 13 12 10 8 11 11 9 9 8 7 8 7 7 7 7 7
-1 -1 -1 -1 -1 -2 -1 2 0 3 5 9 8 4 5 3 3 3 4 5 5 5 6 10 12 13 10 13 11 12 10 9 10 11 9 8 7 7 7 7 7 7 7 6
-1 -1 -1 -1 -1 -2 -0 0 0 2 5 12 8 5 4 4 4 5 5 6 7 9 11 13 13 11 10 11 10 11 8 9 11 12 8 9 9 6 6 6 7 6 7 7
-1 -1 -1 -1 -2 -1 1 5 1 1 1 8 11 6 6 6 5 5 5 6 7 8 9 12 10 8 9 14 13 9 7 6 6 8 6 8 8 7 5 6 7 6 6 6
-1 -1 -1 -1 -1 1 4 5 2 -0 1 7 11 11 7 5 6 6 7 6 7 6 7 8 9 9 7 12 13 9 8 6 6 6 6 9 8 8 6 6 6 6 6 6
-1 -1 -1 -1 -1 -0 3 3 0 0 3 5 10 12 10 5 8 9 6 8 7 6 8 7 9 8 8 12 9 8 7 6 6 6 6 7 6 6 6 6 7 7 7 7
-1 -1 -1 1 2 4 3 -1 -1 1 5 12 10 14 15 7 8 8 7 7 10 6 9 9 8 10 12 9 8 7 7 7 7 7 7 7 7 7 6 5 7 8 8 8
-1 1 3 6 3 -1 -0 2 5 5 5 6 9 8 12 8 9 9 9 8 10 12 10 7 10 11 7 7 6 6 6 6 6 8 8 8 8 7 6 6 6 7 7 9
2 4 5 3 -0 2 5 8 9 12 10 8 8 9 10 7 10 10 8 10 10 14 12 11 12 13 9 6 6 6 5 5 6 6 6 7 7 6 6 6 6 6 6 9
2 2 2 3 6 8 10 11 12 12 13 11 9 8 8 8 7 9 9 11 10 16 9 12 14 10 7 7 7 7 7 7 6 7 7 6 6 7 6 7 6 6 6 7
1 4 7 11 11 12 13 20 12 11 10 10 9 9 8 8 7 10 12 17 15 10 12 14 11 8 6 6 7 6 6 7 6 6 6 6 6 7 7 7 6 5 6 7
6 10 13 12 20 14 15 13 12 8 7 7 7 9 9 9 10 11 15 13 14 17 15 14 10 9 8 8 8 6 7 7 7 7 7 7 7 7 7 7 7 6 6 6
8 8 14 13 10 9 7 7 7 7 6 7 8 9 9 10 12 13 14 16 18 15 13 11 9 7 7 6 6 7 7 7 7 7 6 6 7 7 7 7 7 7 6 7
7 11 12 10 10 12 9 7 8 6 6 6 7 10 11 11 12 12 14 16 14 12 11 9 8 8 8 6 6 6 6 7 8 8 7 7 7 7 7 7 8 7 7 7
14 14 8 9 10 10 11 7 8 6 8 12 9 12 13 13 14 14 11 12 10 10 9 8 7 7 7 7 7 7 7 8 8 8 8 8 7 7 7 8 8 8 8 7

GFSNW_con_lsi_153.txt.gz
Lid_Strength_Index
5 5 6 6 5 6 8 12 17 10 9 14 12 16 12 9 10 8 9 10 11 13 13 14 15 15 12 8 9 11 10 13 16 12 10 9 9 11 11 15 18 17 19 18
4 4 6 6 5 5 11 15 14 9 9 19 18 13 12 11 11 11 10 10 9 9 12 14 12 12 8 8 9 11 10 14 18 16 12 11 12 12 11 13 15 17 18 17
4 5 5 6 5 5 9 13 16 13 11 11 13 13 13 13 9 10 9 9 8 10 11 10 12 12 9 8 8 7 8 12 15 18 16 13 14 13 12 13 15 15 15 15
5 5 4 4 3 3 8 11 15 11 18 15 13 12 11 12 11 8 8 9 9 10 13 12 12 10 9 8 7 8 9 14 13 12 12 12 13 13 12 14 13 14 13 13
3 3 2 2 2 2 8 13 11 10 11 13 14 12 13 12 10 9 10 10 9 9 11 10 12 11 10 11 10 10 10 14 13 15 12 12 15 13 13 13 12 12 12 12
2 2 1 1 0 2 8 6 7 8 11 13 12 12 11 11 8 8 7 8 9 10 9 7 7 8 8 9 10 11 12 13 15 19 14 14 16 14 14 13 11 11 13 10
1 1 1 1 -1 1 5 6 6 8 12 10 11 10 9 10 9 9 8 6 8 7 5 5 6 8 9 9 9 8 12 13 13 17 16 20 14 10 11 12 10 10 10 10
0 1 1 -1 -1 -2 4 4 5 7 11 10 10 10 9 8 8 8 8 7 6 5 6 10 12 12 14 11 10 10 10 12 18 19 18 16 14 13 12 12 12 9 10 9
-1 -1 -1 -1 -2 -2 3 4 3 5 9 10 8 8 8 10 10 9 8 6 5 5 9 11 15 16 15 15 13 10 10 11 14 19 21 20 15 10 10 9 14 9 8 9
-2 -2 -2 -2 -2 -2 2 4 2 4 8 7 6 9 9 6 8 10 9 8 7 6 11 13 15 15 13 16 15 15 13 13 15 15 17 16 11 9 7 15 14 9 9 9
-2 -2 -2 -2 -2 -2 0 4 2 4 7 6 5 5 7 7 7 10 8 9 8 9 12 13 13 14 13 15 14 13 14 15 15 14 16 17 9 9 12 11 10 9 10 9
-2 -2 -2 -2 -1 -1 -1 5 2 1 5 5 3 3 3 4 4 6 6 8 8 8 11 11 11 13 13 14 16 13 15 14 15 13 13 9 7 8 7 7 9 10 10 8
-1 -1 -1 -1 -1 -1 -1 4 3 2 5 6 6 6 4 2 3 2 8 6 5 7 6 9 10 13 12 16 15 14 12 10 12 11 10 9 7 6 6 6 8 8 8 8
-1 -1 -1 -1 -1 -1 -1 4 3 3 4 8 8 3 4 3 2 2 3 5 4 5 6 8 10 12 10 14 12 12 11 10 11 11 9 8 7 7 6 6 6 7 7 7
-1 -1 -1 -1 -1 -1 1 3 2 1 4 9 8 5 4 3 3 3 3 5 6 7 9 11 12 11 11 12 11 13 10 10 12 12 9 9 8 7 6 6 6 7 6 7
-0 -0 -0 -0 -1 -1 2 6 3 -0 1 6 10 7 7 6 5 5 5 5 7 8 10 11 11 9 11 17 15 10 8 8 7 9 7 7 6 6 5 6 6 6 7 7
-0 -0 -1 -1 -1 3 4 6 2 -1 0 6 12 11 7 6 6 7 7 6 8 8 9 10 10 9 8 14 13 10 8 8 7 7 7 8 6 7 5 6 5 5 6 6
-1 -1 -1 -1 -1 0 3 1 -1 0 4 5 11 13 11 6 8 9 7 8 8 7 8 7 9 8 8 12 9 8 7 7 7 7 6 6 6 6 6 6 7 7 7 6
-0 -1 -1 1 3 4 3 -0 -0 2 6 11 10 13 14 7 8 8 7 8 10 7 9 9 8 10 12 10 9 8 7 7 7 7 7 7 7 7 7 7 8 7 6 7
-1 2 5 6 3 -0 -0 2 5 6 7 7 10 9 11 8 9 8 10 7 10 12 10 7 10 11 8 7 7 6 6 6 6 8 8 8 8 8 8 7 6 6 6 6
4 4 5 4 -0 2 5 8 9 10 11 8 8 9 11 8 10 11 9 12 10 14 11 11 12 14 9 7 7 6 6 6 6 6 6 7 7 7 7 7 6 6 6 6
3 3 2 3 5 7 9 15 12 11 13 12 9 9 9 9 7 11 10 12 10 14 9 12 14 10 7 7 7 7 7 7 7 6 6 6 6 7 6 6 6 6 6 6
2 4 7 12 11 17 14 21 15 15 10 9 10 10 9 8 8 10 12 12 13 10 12 13 11 9 7 7 6 7 7 7 7 7 7 7 7 6 6 6 7 7 6 6
8 10 13 16 17 16 16 16 14 9 9 11 9 9 8 8 10 9 12 12 13 14 15 14 11 9 7 7 5 6 6 6 6 7 6 7 7 7 6 6 6 7 7 6
8 13 17 13 11 14 11 10 9 7 7 7 8 8 8 9 11 12 14 16 15 15 13 12 9 8 7 7 6 6 6 6 7 7 7 7 7 7 7 7 7 7 8 7
7 9 12 11 11 13 10 8 8 6 6 6 7 10 11 13 11 13 14 15 14 12 11 9 8 9 8 7 6 6 7 8 7 7 8 8 8 8 8 8 8 8 7 7
10 13 9 9 10 11 12 7 7 5 8 10 10 14 13 12 15 15 12 12 10 10 9 8 8 8 8 7 7 7 7 8 8 8 8 8 8 8 8 8 8 8 8 7

GFSNW_con_lsi_159.txt.gz
Lid_Strength_Index
5 6 6 6 6 7 9 14 17 10 10 16 16 18 14 12 13 13 13 11 12 14 14 14 14 14 12 9 9 11 9 12 15 13 9 9 9 11 11 17 17 16 15 15
5 6 6 6 6 7 10 14 14 10 12 22 21 16 15 13 13 13 13 13 11 11 13 15 12 12 9 8 9 10 9 13 17 16 12 10 13 12 12 11 12 15 16 15
6 6 6 5 5 6 10 14 17 15 13 14 16 17 16 14 11 12 11 11 11 12 12 11 13 12 9 8 9 5 7 12 14 17 15 13 15 14 13 14 15 15 14 13
5 4 5 5 5 5 10 14 17 15 17 15 14 14 14 15 15 11 10 12 11 12 13 12 13 11 11 9 7 8 9 13 12 11 11 12 13 14 15 15 15 16 14 15
5 5 4 4 5 6 12 16 17 15 18 16 15 14 16 14 12 12 12 12 11 11 12 11 13 10 11 11 9 9 8 13 12 13 11 12 14 13 13 14 14 15 14 15
5 4 3 3 4 7 12 12 11 14 16 16 16 14 12 12 11 10 9 10 11 11 10 8 8 7 8 8 9 10 10 12 14 16 12 14 18 15 14 13 13 13 15 12
4 3 3 3 2 5 9 11 11 15 19 16 13 11 11 11 11 11 9 9 11 8 5 6 7 8 8 8 8 8 11 12 12 15 14 19 13 13 13 12 12 11 11 11
2 1 1 2 2 3 8 9 10 12 15 13 11 11 11 10 9 10 10 8 6 5 7 10 13 12 11 10 9 9 8 11 14 17 16 14 12 12 13 14 13 11 11 10
0 0 1 1 1 1 6 7 7 8 11 12 9 11 10 12 12 11 9 7 5 6 9 11 15 16 14 14 12 9 9 9 13 16 18 18 13 9 8 9 14 10 11 12
-0 0 0 0 -0 -0 5 6 5 5 9 8 8 10 11 9 11 12 10 9 7 6 10 13 14 15 11 14 14 14 13 13 15 15 16 14 11 9 8 15 13 9 10 11
-1 -1 -1 -1 -1 -1 3 4 3 4 7 7 6 6 8 9 8 11 10 9 8 9 12 13 13 13 12 13 12 12 13 15 15 14 16 17 8 8 12 9 8 7 8 9
-1 -1 -2 -2 -2 -2 0 5 3 2 5 7 5 5 4 5 5 8 8 8 9 8 10 10 11 12 11 12 15 10 14 11 13 12 12 9 8 7 6 6 7 8 8 7
-0 -1 -1 -1 -1 -2 -1 2 3 3 5 6 7 7 4 3 3 3 8 7 6 7 5 8 10 12 10 14 13 12 10 10 11 11 9 9 8 6 7 6 6 6 6 7
-1 -1 -1 -1 -2 -2 -1 4 2 4 6 10 10 5 7 4 4 4 3 5 3 5 7 8 10 11 8 11 11 12 10 10 11 12 10 9 8 7 6 6 6 6 5 6
-1 -1 -1 -1 -1 -1 1 3 3 2 6 12 12 8 5 4 5 5 4 5 6 6 8 9 10 8 9 9 10 12 10 11 12 12 10 9 8 7 6 7 7 6 6 6
-1 -1 -1 -1 -1 -0 3 7 4 2 3 7 14 8 8 6 6 6 6 5 5 5 7 8 8 8 9 12 15 10 8 8 7 9 8 8 7 7 7 7 6 6 6 7
-2 -1 -1 -1 -1 2 6 8 6 1 2 7 12 12 8 7 6 6 6 4 5 6 7 8 8 8 8 14 14 11 9 8 7 7 7 8 7 8 7 6 6 5 6 5
-1 -1 -1 -1 0 1 4 2 0 2 6 6 15 13 12 6 8 9 7 8 6 6 7 8 9 8 8 14 10 9 8 8 8 8 8 7 6 7 7 6 6 7 7 6
-1 -0 0 2 4 6 6 0 0 3 7 11 11 14 14 7 8 7 7 7 10 8 9 9 8 10 12 10 9 9 8 9 8 7 7 7 7 7 7 7 7 7 7 6
-1 2 5 9 6 0 1 3 6 6 6 7 12 10 13 9 7 8 8 7 9 12 10 7 10 11 8 8 7 7 7 7 7 8 9 8 8 7 7 7 7 7 7 7
5 7 8 5 1 4 6 8 9 9 10 9 10 9 10 7 10 10 8 13 15 13 12 11 11 12 9 8 8 6 6 6 7 7 6 7 6 6 7 7 6 6 6 5
5 5 4 4 6 8 10 16 13 12 11 11 10 9 9 8 8 9 10 12 11 13 9 11 14 10 8 7 6 5 5 5 6 6 7 7 7 7 6 6 6 6 5 5
5 8 8 12 13 16 17 21 14 14 10 9 9 9 8 9 9 12 10 12 12 9 12 13 11 8 7 7 6 6 5 5 5 5 5 6 6 6 7 7 6 6 6 5
13 17 17 18 18 15 17 15 12 9 9 9 8 9 9 8 9 11 13 12 12 13 14 13 10 9 8 7 7 7 7 7 6 5 5 5 7 7 6 6 6 6 7 7
13 15 18 15 13 16 14 14 13 10 8 8 8 9 8 9 11 9 12 13 14 14 13 11 10 8 8 8 7 8 7 7 7 5 6 6 6 7 6 7 7 7 7 6
11 11 13 12 12 16 14 12 16 11 9 7 6 12 10 12 13 14 13 14 14 12 10 10 9 9 9 9 8 7 7 7 7 6 6 6 6 7 7 7 7 7 7 6
13 10 9 10 11 12 15 10 9 5 7 10 9 12 15 11 12 13 11 12 10 9 9 9 9 9 8 8 8 7 7 8 8 8 7 6 6 6 7 7 7 7 6 6

GFSNW_con_lsi_162.txt.gz
Lid_Strength_Index
4 5 5 6 6 6 8 11 14 8 8 12 12 14 13 12 13 12 14 13 13 14 14 14 14 14 12 8 9 11 8 12 14 11 8 7 9 12 11 14 15 13 13 13
5 6 6 7 6 7 9 12 12 8 9 15 14 13 14 14 14 13 13 14 12 12 13 14 13 11 8 7 9 10 8 10 15 12 9 9 13 12 12 12 12 14 16 13
5 6 6 7 7 7 9 12 14 12 10 11 14 15 15 15 12 13 12 12 10 12 13 10 12 11 9 8 8 6 6 10 13 15 13 13 14 13 13 13 16 14 13 12
5 5 6 5 6 6 8 11 13 12 14 13 12 13 13 14 14 11 11 12 12 12 13 12 12 10 10 8 7 7 8 12 10 10 10 10 13 13 12 15 14 16 15 13
4 4 5 6 5 6 9 12 13 11 13 11 11 12 13 14 13 12 12 11 11 10 12 11 12 10 9 10 7 8 7 12 10 12 10 10 12 12 12 12 13 14 14 14
4 3 5 4 4 6 9 10 10 9 12 11 12 12 12 12 10 9 8 9 10 10 9 8 7 7 6 7 9 9 9 10 12 14 11 11 13 12 12 12 11 13 15 12
2 3 4 3 4 5 6 7 7 9 13 11 12 12 11 11 9 9 8 7 9 7 5 5 5 6 6 6 7 6 10 10 11 14 12 18 10 7 11 12 11 10 11 10
2 3 3 2 2 3 4 5 6 8 12 11 11 10 10 8 8 8 8 6 5 4 6 9 11 10 10 9 7 7 7 10 13 15 14 12 10 9 10 12 13 9 10 10
2 1 1 1 1 2 3 4 3 6 10 11 8 9 8 9 9 9 8 5 4 5 7 10 14 14 12 12 10 8 8 8 12 12 17 18 10 7 7 8 14 8 8 9
1 1 0 0 0 1 2 3 2 4 9 7 7 8 8 6 8 9 8 8 7 6 9 12 13 13 10 13 13 12 12 13 15 14 15 12 7 7 7 13 11 7 8 9
-1 -1 -1 -1 -0 -0 1 3 1 3 7 6 5 5 6 6 7 9 7 8 7 8 11 12 11 12 10 11 10 11 11 14 15 14 15 16 6 7 10 7 5 6 8 9
-1 -1 -1 -1 -1 -1 0 3 1 0 4 5 3 3 3 3 4 6 6 7 7 7 9 9 9 11 10 10 13 8 12 9 11 12 11 6 6 6 5 4 5 5 6 6
-0 0 -1 -1 -1 -1 -1 2 1 2 5 6 6 6 3 2 2 2 7 6 5 6 4 8 9 12 9 13 11 10 8 6 9 10 8 7 6 5 4 4 4 5 5 6
-0 -0 -1 -1 -1 -1 -1 2 2 2 6 9 6 3 4 2 2 3 3 4 3 3 5 8 9 11 7 9 9 10 8 7 8 8 7 6 5 5 4 4 3 4 4 5
1 -0 -1 -0 -1 -1 -0 1 2 2 5 9 7 5 4 3 3 3 3 4 5 5 7 9 9 7 8 7 8 9 7 8 9 10 6 7 6 4 4 4 4 4 4 5
-0 -0 -0 -1 0 0 4 8 5 2 4 8 10 5 6 5 4 4 4 4 4 5 7 7 7 5 7 10 10 7 7 5 5 7 5 5 5 4 4 4 4 4 4 4
-0 -0 -1 -1 -1 2 5 5 3 2 3 8 9 9 5 5 4 4 5 4 5 5 7 7 7 7 6 9 11 8 7 6 6 5 5 6 5 6 4 4 4 4 4 4
-1 -1 -1 -2 -1 2 4 2 1 1 5 6 10 10 8 5 6 7 4 6 5 6 7 6 7 6 7 11 7 6 6 6 6 6 5 5 5 5 5 4 5 5 5 5
-1 -1 -1 2 5 6 4 -0 1 1 4 9 10 11 11 5 5 5 6 5 9 5 8 8 7 8 11 8 7 6 6 6 6 5 5 5 5 5 5 5 5 5 5 4
-1 1 4 6 6 1 1 4 6 6 6 7 10 7 9 6 7 8 8 7 9 11 8 6 9 9 6 5 5 5 4 4 5 6 6 5 6 5 5 5 4 4 4 4
3 5 7 3 0 3 6 9 10 9 10 8 7 7 8 5 9 8 7 9 8 12 9 10 10 10 7 5 4 4 4 4 4 4 4 4 4 4 5 4 4 4 4 4
4 3 2 3 6 8 11 12 11 10 10 8 8 7 6 6 4 7 7 9 9 13 7 10 12 8 5 5 5 4 4 4 4 4 4 4 4 4 4 4 4 4 3 3
3 5 8 8 10 13 14 15 12 11 8 7 7 8 6 7 6 8 9 11 11 6 11 11 9 6 5 5 5 5 5 5 5 5 4 4 4 3 4 4 4 4 4 4
8 10 13 12 13 12 11 10 9 7 6 6 6 7 7 6 9 8 11 9 9 12 13 12 8 6 5 5 5 5 5 5 5 5 4 4 4 4 4 4 4 4 5 4
10 10 13 13 10 10 9 8 8 7 5 6 7 7 7 8 10 9 9 12 13 12 11 8 6 5 5 5 5 5 5 5 5 5 5 5 5 5 4 4 4 4 4 4
9 10 11 10 9 10 9 8 8 5 5 5 5 8 9 10 10 11 12 12 13 10 8 6 5 5 6 5 5 5 5 5 6 6 6 6 6 6 5 4 4 5 5 5
9 9 7 8 8 7 7 7 6 5 6 8 8 11 11 8 11 12 9 10 8 6 6 5 5 6 6 6 5 5 5 6 6 7 7 7 6 5 5 5 5 5 6 6